TimeCDT,TemperatureF,Dew PointF,Humidity,Sea Level PressureIn,VisibilityMPH,Wind Direction,Wind SpeedMPH,Gust SpeedMPH,PrecipitationIn,Events,Conditions,WindDirDegrees,DateUTC
12:54 AM,66.0,57.9,75,30.08,10.0,South,5.8,-,N/A,,Scattered Clouds,180,2013-08-19 05:54:00
1:54 AM,66.0,57.9,75,30.07,10.0,South,3.5,-,N/A,,Partly Cloudy,170,2013-08-19 06:54:00
2:54 AM,64.0,57.9,80,30.06,10.0,SSE,6.9,-,N/A,,Partly Cloudy,160,2013-08-19 07:54:00
3:54 AM,63.0,57.9,84,30.06,10.0,South,6.9,-,N/A,,Scattered Clouds,170,2013-08-19 08:54:00
4:54 AM,64.0,57.9,80,30.07,10.0,South,5.8,-,N/A,,Mostly Cloudy,170,2013-08-19 09:54:00
5:54 AM,63.0,57.9,84,30.07,10.0,South,6.9,-,N/A,,Scattered Clouds,180,2013-08-19 10:54:00
6:54 AM,63.0,57.9,84,30.06,6.0,South,8.1,-,N/A,,Haze,170,2013-08-19 11:54:00
7:54 AM,64.9,59.0,81,30.06,7.0,South,8.1,-,N/A,,Mostly Cloudy,180,2013-08-19 12:54:00
8:54 AM,68.0,61.0,78,30.08,8.0,South,5.8,-,N/A,,Overcast,180,2013-08-19 13:54:00
9:54 AM,73.0,63.0,71,30.08,9.0,South,9.2,-,N/A,,Overcast,190,2013-08-19 14:54:00
10:54 AM,75.9,63.0,64,30.07,10.0,SSW,11.5,-,N/A,,Mostly Cloudy,210,2013-08-19 15:54:00
11:54 AM,80.1,63.0,56,30.06,10.0,SSW,15.0,-,N/A,,Mostly Cloudy,210,2013-08-19 16:54:00
12:54 PM,82.0,62.1,51,30.05,10.0,SSW,17.3,-,N/A,,Partly Cloudy,200,2013-08-19 17:54:00
1:54 PM,84.0,63.0,49,30.02,10.0,South,18.4,25.3,N/A,,Partly Cloudy,190,2013-08-19 18:54:00
2:54 PM,86.0,63.0,46,30.01,10.0,South,12.7,-,N/A,,Mostly Cloudy,190,2013-08-19 19:54:00
3:54 PM,87.1,62.1,43,29.99,10.0,South,15.0,-,N/A,,Scattered Clouds,180,2013-08-19 20:54:00
4:54 PM,86.0,61.0,43,29.98,10.0,South,15.0,-,N/A,,Scattered Clouds,190,2013-08-19 21:54:00
5:54 PM,84.9,63.0,48,29.98,10.0,South,10.4,-,N/A,,Scattered Clouds,180,2013-08-19 22:54:00
6:54 PM,82.9,63.0,51,29.98,10.0,South,8.1,-,N/A,,Scattered Clouds,170,2013-08-19 23:54:00
7:54 PM,79.0,64.0,60,29.97,10.0,SSE,5.8,-,N/A,,Partly Cloudy,150,2013-08-20 00:54:00
8:54 PM,77.0,64.0,64,29.97,10.0,SSE,8.1,-,N/A,,Clear,150,2013-08-20 01:54:00
9:54 PM,73.9,63.0,68,29.98,10.0,South,6.9,-,N/A,,Clear,180,2013-08-20 02:54:00
10:54 PM,73.0,62.1,68,29.98,10.0,South,5.8,-,N/A,,Partly Cloudy,180,2013-08-20 03:54:00
11:54 PM,73.0,61.0,66,29.97,10.0,SSW,8.1,-,N/A,,Partly Cloudy,200,2013-08-20 04:54:00